Simultaneous Nadir Overpasses (SNOs) Predictions

Prediction of SNOs between GOES-15 and TERRA Satellite Orbit:

Table of predicted SNOs for the next 14.0 days since TLE Epoch: 4/29/2023
Index Date Time (GOES-15) GOES-15 Lat,Lon TERRA Lat,Lon Distance(km) Time Diff (sec)
1 04/29/2023 19:19:53 -0.23,-140.67 -0.69,-138.51 245.07 80
2 04/30/2023 07:42:54 0.23,-140.92 -0.33,-143.46 289.28 80
3 05/02/2023 07:24:05 0.23,-141.87 0.68,-139.59 258.92 80
4 05/02/2023 19:46:59 -0.23,-142.10 0.26,-144.52 274.17 80
5 05/04/2023 19:28:08 -0.23,-143.04 -0.72,-140.63 273.54 80
6 05/05/2023 07:51:11 0.23,-143.30 -0.24,-145.60 260.94 80
7 05/07/2023 07:32:20 0.23,-144.22 0.76,-141.71 285.23 80
8 05/07/2023 19:55:14 -0.23,-144.45 0.22,-146.64 248.59 80
9 05/09/2023 19:36:23 -0.24,-145.36 -0.81,-142.76 296.44 80
10 05/10/2023 07:59:25 0.24,-145.61 -0.20,-147.71 238.38 80
11 05/12/2023 07:40:33 0.25,-146.52 0.79,-143.82 305.75 80
12 05/12/2023 20:03:27 -0.24,-146.74 0.18,-148.75 228.59 80
